User: anonymous   Login
Location: Unspecified
(0.0000°N, 0.0000°E)
Time: 20:00:02
(UTC+02:00)
Language:

Cosmos 1125 Rocket - Orbit

View from above orbital plane
View from above orbital plane
View from above satellite
View from above satellite

Ground track
Ground track

The orbit data is extracted from the following two-line orbital elements,

1 11511U 79078B   15241.14981681  .00000079  00000-0  35665-4 0  9996
2 11511 074.0352 084.6696 0014988 131.8154 228.4282 14.36647149884119
Epoch (UTC): 29 August 2015 03:35:44
Eccentricity: 0.0014988
inclination: 74.0352°
perigee height: 759 km
apogee height: 780 km
right ascension of ascending node: 84.6696°
argument of perigee: 131.8154°
revolutions per day: 14.36647149
mean anomaly at epoch: 228.4282°
orbit number at epoch: 88411

The dashed part of the orbit path shows where the satellite is in the earth's shadow,  

DLR